Location: Glatignat
(46.3667°N, 1.5049°E)
Time: 20:42:50
(UTC+00:00)

Daily predictions for brighter satellites

Satellite Brightness Start Highest point End
(mag) Time Altitude Azimuth Time Altitude Azimuth Time Altitude Azimuth
Meteor 2-9 Rocket 4.5 18:09:56 10° SSW 18:15:47 84° W 18:21:33 10° N
Cosmos 1300 Rocket 4.0 18:15:08 10° SSE 18:19:15 40° E 18:23:26 10° NNE
Sich 1 Rocket 3.6 18:19:03 10° S 18:23:32 72° E 18:28:06 10° NNE
NOSS 2-2 (E) 4.1 18:20:46 10° WSW 18:24:13 50° NW 18:28:10 10° NNE
CENTAUR R/B 3.4 18:17:16 10° NW 18:25:05 58° NE 18:33:42 10° ESE
Cosmos 2298 Rocket 4.2 18:20:24 10° S 18:25:34 54° ESE 18:30:46 10° NNE
Cosmos 1833 Rocket 4.4 18:22:41 10° N 18:26:18 17° NE 18:29:54 10° E
Cosmos 1975 4.1 18:22:54 10° SSW 18:26:50 46° WNW 18:30:47 10° N
Iridium 4 Rocket 4.1 18:22:48 10° SSW 18:27:57 68° W 18:33:36 10° N
CSL-04 Debris 4.2 18:24:55 10° SSE 18:30:13 63° ENE 18:35:34 10° N
Helios 1A Rocket 4.0 18:28:02 10° S 18:32:02 50° W 18:36:05 10° NNW
CSL-04 Rocket 3.7 18:26:49 10° SSE 18:32:11 63° ENE 18:37:39 10° N
ATLAS 2AS CENTAUR R/B 3.7 18:26:57 10° SSE 18:33:34 30° ESE 18:40:12 10° NE
Okean 2 Rocket 3.1 18:29:22 10° S 18:33:46 59° E 18:38:10 10° NNE
NOSS 2-2 (D) 4.0 18:30:38 10° WSW 18:34:04 50° NW 18:37:57 10° NNE
Cosmos 1025 Rocket 3.1 18:30:15 10° N 18:34:36 58° ENE 18:38:56 10° SSE
YAOGAN 1 2.6 18:30:26 10° SSE 18:34:45 89° W 18:39:07 10° NNW
ATLAS 3B R/B 3.7 18:31:08 10° NNW 18:37:03 30° NNE 18:42:35 12° E
Abrixas rocket 1.8 18:37:20 10° WNW 18:40:11 76° NNE 18:42:11 17° E
Cosmos 1513 Rocket 4.4 18:35:05 10° S 18:41:18 73° E 18:47:26 10° NNE
CREW DRAGON DEMO-1 DEB 3.0 18:39:10 10° WNW 18:42:11 59° NNE 18:44:16 18° E
Cosmos 1536 Rocket 3.7 18:40:00 10° N 18:44:23 55° ENE 18:48:47 10° SSE
Cosmos 1125 Rocket 3.7 18:41:07 10° S 18:46:13 50° ESE 18:51:22 10° NNE
SJ-6B 4.0 18:48:31 17° ESE 18:50:10 23° ENE 18:53:12 10° NNE
CZ-4 R/B 2.6 18:48:20 10° S 18:52:23 47° W 18:56:27 10° NNW
Cosmos 2150 Rocket 4.0 18:47:43 10° SSW 18:53:07 84° ESE 18:58:37 10° NNE
SJ-11-01 4.2 18:48:42 10° SSE 18:53:24 84° ENE 18:58:07 10° NNW
CZ-2C R/B 3.3 18:49:06 10° S 18:54:28 80° WSW 19:00:09 10° NNW
USA 238 DEB 4.0 18:47:16 10° NW 18:54:31 82° SW 19:02:02 10° SSE
USA 238 4.0 18:47:23 10° NW 18:54:38 83° SW 19:02:09 10° SSE
Cosmos 1464 Rocket 4.0 18:48:30 10° S 18:54:38 87° E 19:00:53 10° N
Okean-O 4.1 18:52:07 10° SSW 18:56:17 40° W 19:00:28 10° NNW
Cosmos 1674 2.9 18:53:01 10° N 18:56:46 47° ENE 19:00:17 11° SSE
Cosmos 2285 Rocket 4.1 18:50:51 10° S 18:56:55 52° ESE 19:03:04 10° NNE
Cosmos 1092 Rocket 4.3 18:51:49 10° N 18:57:43 45° ENE 19:03:37 10° SSE
MOS 1 Rocket 3.0 18:59:07 10° NNE 19:03:30 70° ESE 19:07:45 10° S
FREGAT/IRIS 4.1 19:04:41 18° NE 19:04:41 18° NE 19:05:57 10° NNE
TSX-5 4.4 19:04:35 10° S 19:08:05 37° ESE 19:12:28 10° NE
ARGOS 3.1 19:04:42 10° SSE 19:10:03 84° ENE 19:15:28 10° NNW
Cosmos 1048 Rocket 4.5 19:06:52 10° NNW 19:12:09 65° WSW 19:17:27 10° S
CZ-2C R/B 3.0 19:08:25 10° NNE 19:13:46 45° E 19:19:07 10° S
Cosmos 1340 Rocket 4.2 19:15:12 22° ENE 19:15:12 22° ENE 19:17:21 10° NE
Cosmos 1733 3.6 19:13:47 23° SSE 19:15:41 38° E 19:19:16 10° NNE
Cosmos 2151 Rocket 3.9 19:11:59 10° SSW 19:16:26 70° W 19:20:57 10° N
HJ-1C 4.5 19:13:54 10° S 19:17:04 45° W 19:20:16 10° NNW
MOS 1 4.4 19:13:05 16° SE 19:17:32 55° ENE 19:23:06 10° N
Lacrosse 5 rocket 3.4 19:14:43 10° NW 19:18:08 22° N 19:20:43 14° NE
Cosmos 2082 Rocket 3.5 19:15:15 10° N 19:19:39 23° NE 19:21:17 20° ENE
Shenzhou-11 Module 4.0 19:20:19 10° SW 19:20:33 12° SSW 19:20:33 12° SSW
BREEZE-M DEB (TANK) 3.5 19:19:07 10° WNW 19:22:16 52° SSW 19:27:36 20° SE
BREEZE-M R/B 4.0 19:11:08 10° WSW 19:22:45 86° SSE 19:24:25 31° ENE
DMSP B5D2-2 4.3 19:18:31 10° NNE 19:23:36 45° E 19:28:39 10° S
Cosmos 494 Rocket 4.1 19:19:41 10° NNW 19:24:58 76° WSW 19:29:53 12° SSE
Meteor 1-15 Rocket 4.2 19:21:27 10° S 19:27:06 90° SE 19:32:54 10° N
Cosmos 1805 3.1 19:23:39 10° S 19:27:33 78° E 19:31:29 10° NNE
OBJECT-B 2.2 19:28:48 26° NE 19:28:48 26° NE 19:30:45 10° N
Milstar 3 Cent rocket 4.2 19:27:43 10° SSW 19:30:57 14° S 19:32:39 12° SSE
Ariane Rocket 2.9 19:28:06 18° SSE 19:31:55 79° ENE 19:37:02 10° NNW
SL-08 RB Rocket 3.7 19:27:52 13° SSE 19:31:59 83° WSW 19:36:33 10° NNW
H-2A R/B 3.0 19:28:40 10° S 19:33:28 47° W 19:38:25 10° NNW
USA 234 4.5 19:38:14 21° SSE 19:38:14 21° SSE 19:41:18 10° S
Cosmos 1269 Rocket 3.9 19:31:35 10° NNW 19:36:56 79° ENE 19:39:33 31° SSE
Nadezhda 4 Rocket 4.5 19:32:11 10° NNW 19:38:11 60° W 19:44:12 10° S
KORONAS-FOTON 4.4 19:34:25 10° NNW 19:38:17 57° W 19:41:31 14° S
Cosmos 1626 2.0 19:38:23 10° N 19:42:02 67° ENE 19:42:02 67° ENE
Okean 1-7 Rocket 4.5 19:38:09 10° N 19:41:51 33° ENE 19:41:51 33° ENE
MetOp-A 4.0 19:40:20 26° SSE 19:43:27 80° ENE 19:48:50 10° NNW
USA 186 2.4 19:42:34 37° SSW 19:43:32 55° W 19:46:47 10° NNW
COSMOS 2406 3.2 19:40:27 10° NNW 19:46:07 66° ENE 19:47:55 43° SE
Cosmos 1844 Rocket 3.7 19:40:48 10° SW 19:46:08 46° WNW 19:51:33 10° NNE
ISS -2.4 19:44:20 10° WNW 19:47:25 32° N 19:47:46 31° N
Cosmos 2278 Rocket 2.7 19:44:52 10° S 19:51:32 37° ENE 19:55:31 10° NE
Lacrosse 4 Rocket 2.6 19:49:53 10° NNW 19:52:52 28° NNE 19:52:52 28° NNE
Meteor 1-22 Rocket 4.2 19:49:04 10° S 19:54:58 79° E 20:01:04 10° NNE
Meteor 2-5 Rocket 3.9 19:50:51 10° NNW 19:56:31 72° W 20:00:46 19° S
Exosat Rocket 4.1 19:52:57 10° SW 19:58:11 56° WNW 20:03:08 10° NNE
Meteor 1-24 Rocket 3.7 19:53:16 10° NNW 19:58:52 87° W 20:01:37 33° S
Okean 1 Rocket 3.9 19:55:49 10° SSW 20:00:11 53° WNW 20:04:36 10° N
NOSS 3-4 (A) 3.3 19:55:19 10° SW 20:01:14 86° NW 20:07:37 10° NE
NOSS 3-4 (C) 3.3 19:55:26 10° SW 20:01:21 86° NW 20:07:43 10° NE
SL-14 R/B 3.3 19:58:04 10° N 20:01:55 80° WNW 20:01:55 80° WNW
Resurs 01 Rocket 2.2 20:03:26 45° NE 20:03:26 45° NE 20:07:00 10° N
Meteor 2-19 Rocket 4.5 19:57:01 10° N 20:03:01 55° ENE 20:03:47 52° ESE
Cosmos 1766 4.4 20:05:40 10° SSW 20:09:24 42° WNW 20:13:12 10° N
Cosmos 1833 Rocket 2.5 20:05:32 10° NNW 20:11:14 77° ENE 20:11:54 67° ESE
Cosmos 2251 Rocket 3.9 20:08:55 10° NNW 20:13:44 48° NE 20:13:44 48° NE
CENTAUR R/B 4.0 20:08:10 10° NW 20:15:55 47° WSW 20:22:00 19° S
ARIANE 5 R/B 4.1 20:20:05 27° NNE 20:20:05 27° NNE 20:22:20 10° N
SPOT 3 Rocket 3.4 20:20:50 73° SSW 20:21:18 82° WSW 20:26:29 10° NNW
Cosmos 1634 Rocket 4.4 20:17:23 10° SSW 20:23:29 63° WNW 20:29:39 10° N
ATLAS 2AS CENTAUR R/B 3.1 20:16:02 10° SW 20:24:00 76° NW 20:31:55 10° NE
SJ-6B 4.4 20:24:09 27° WSW 20:24:43 28° W 20:28:02 10° NW
Resurs 1-3 4.0 20:26:18 60° W 20:26:18 60° W 20:30:23 10° NNW
ATLAS 3B R/B 2.6 20:21:38 10° NW 20:28:34 87° SW 20:29:50 63° SSE
Cosmos 1892 Rocket 4.2 20:24:50 10° NNW 20:28:35 54° WNW 20:28:35 54° WNW
Cosmos 1655 Rocket 3.9 20:31:31 10° N 20:37:50 80° E 20:37:50 80° E
CZ-2C R/B 4.4 20:49:02 10° N 20:53:51 31° WNW 20:58:41 10° WSW
Lacrosse 5 rocket 3.4 20:53:55 10° NW 20:56:20 28° NNW 20:56:20 28° NNW
OBJECT-B 4.3 21:02:00 11° WNW 21:02:00 11° WNW 21:02:15 10° NW
Cosmos 2098 Rocket 4.1 20:55:36 10° NNW 21:01:45 66° WNW 21:01:45 66° WNW
Cosmos 2082 Rocket 2.8 20:58:43 10° NNW 21:03:08 54° NW 21:03:08 54° NW
Terra 4.1 21:21:44 18° N 21:21:44 18° N 21:23:00 10° N
Lacrosse 4 Rocket 4.4 21:28:32 10° NW 21:29:10 14° NW 21:29:10 14° NW
Cosmos 2278 Rocket 3.6 21:33:01 30° W 21:34:23 34° NW 21:39:31 10° NNE
Resurs 01 Rocket 4.4 21:41:00 15° WNW 21:41:00 15° WNW 21:42:30 10° NW
